RH
98 97 83 66 61 58 51 42 63 68 75 80 74 79 77 78 68 64 69 71 70 68 65 63 66 57 57 62 63 59 59 64 66 69 69 60 56 58 60 60 59 57 55 54
97 98 80 72 67 66 55 45 60 75 81 82 79 86 81 77 73 64 63 65 65 68 67 64 62 67 62 63 66 65 64 65 64 68 70 71 71 66 67 65 60 55 52 49
93 95 92 76 69 62 61 49 56 68 70 73 79 84 75 71 71 67 64 65 69 69 70 69 67 63 66 64 68 70 72 70 70 69 69 69 68 65 60 58 53 50 46 45
91 96 93 81 71 65 62 57 65 61 62 64 61 63 57 60 64 60 61 62 65 67 73 74 68 66 63 64 64 67 69 65 63 62 62 62 64 65 63 58 52 50 46 41
91 97 92 81 71 68 66 55 58 57 57 47 55 59 46 49 51 56 60 57 61 64 70 78 70 67 67 67 65 66 64 64 64 65 67 67 65 64 59 53 52 48 42 38
93 97 93 78 75 73 68 59 58 54 53 57 47 46 36 40 41 39 49 52 53 61 60 70 76 71 66 68 67 68 67 66 66 67 66 66 62 57 54 53 53 49 41 39
98 96 95 85 82 75 68 66 70 67 69 58 45 44 40 39 37 38 43 44 44 51 56 59 63 71 69 69 68 66 67 67 68 65 66 62 60 57 56 55 51 49 45 42
98 98 93 85 77 72 68 62 58 57 53 50 50 48 38 32 32 34 38 40 40 42 48 57 65 68 72 72 71 69 68 70 72 71 68 65 61 56 53 51 48 45 42 39
89 96 92 87 81 76 73 73 64 60 53 52 48 36 31 30 31 31 32 33 37 40 46 49 61 74 75 76 77 76 74 70 69 67 66 63 59 57 54 51 50 47 44 40
81 93 92 87 82 77 75 72 69 64 64 45 42 35 32 30 33 34 36 36 36 38 38 44 53 57 66 69 74 80 79 76 73 71 67 63 60 59 57 53 48 46 44 42
84 76 91 92 84 79 76 75 70 66 57 59 41 37 31 31 34 34 36 38 36 36 41 43 43 41 44 50 61 66 72 71 77 76 71 66 62 59 54 48 44 43 42 42
82 81 85 86 84 79 73 68 66 65 65 48 49 45 34 33 33 34 38 38 37 34 34 36 38 39 40 42 43 52 59 64 66 60 60 62 58 54 50 48 46 44 43 42
79 80 92 90 77 71 73 68 65 60 62 63 58 49 43 40 37 36 38 39 40 37 35 34 36 36 35 36 39 40 45 51 56 59 61 59 56 52 51 50 46 43 44 44
78 76 75 76 72 66 69 65 66 63 68 59 55 51 53 51 46 43 41 42 43 40 38 38 38 38 39 39 38 39 40 42 43 44 46 48 52 53 52 49 47 46 47 46
76 80 79 72 72 72 71 64 64 70 64 67 60 61 56 54 52 52 49 48 47 43 41 41 43 42 40 40 40 41 40 40 40 41 43 45 49 49 48 46 48 49 49 49
70 76 70 77 71 71 71 68 68 71 72 70 67 62 59 57 56 52 49 48 46 45 45 48 48 47 45 45 43 43 44 45 47 48 50 50 48 47 48 49 49 53 54 55
75 73 75 73 65 64 63 59 62 66 66 65 65 62 60 61 61 60 58 57 53 50 49 50 55 53 52 53 52 51 48 49 52 55 57 57 53 52 54 56 55 57 58 61
80 81 77 77 68 71 58 55 55 58 59 59 58 60 61 61 61 59 61 61 58 55 52 50 57 60 60 60 60 57 57 59 61 61 64 63 59 59 60 60 60 62 60 64
67 71 78 82 71 61 62 60 62 65 73 66 65 62 58 57 56 57 67 62 58 54 52 50 52 62 63 63 62 60 60 62 64 65 67 65 64 64 64 64 63 64 63 66
67 66 64 63 65 61 63 59 60 59 64 64 59 58 57 57 57 55 55 59 56 53 51 48 47 55 62 62 64 63 63 65 67 68 68 67 69 67 67 67 67 68 67 68
78 78 80 80 75 65 63 63 67 72 71 69 63 58 57 58 59 57 59 59 59 54 54 50 44 49 56 60 61 60 62 66 69 70 69 67 69 71 70 70 69 70 68 68
72 74 74 74 81 76 68 70 70 70 66 64 62 61 60 58 55 54 56 61 62 56 56 54 49 52 55 58 59 61 67 70 71 68 67 66 69 73 72 71 73 71 70 67
62 55 59 58 62 62 64 67 68 67 66 61 56 56 57 52 48 47 52 62 68 64 61 57 54 55 56 58 62 67 70 72 72 69 70 74 73 79 76 73 75 85 74 64
61 59 60 54 56 56 54 54 53 52 58 60 59 54 51 49 45 44 47 60 67 71 68 68 61 58 59 62 65 71 71 71 72 74 75 84 81 74 79 82 77 75 76 64
66 60 59 56 54 54 54 59 63 63 62 61 57 54 54 52 50 45 44 57 64 72 77 74 76 71 68 67 70 72 73 75 72 72 78 89 77 79 86 83 81 81 76 63
60 60 62 62 69 70 69 70 70 71 70 69 67 63 62 60 56 51 40 52 66 68 74 80 82 83 85 83 87 88 91 92 95 94 97 95 88 84 79 82 82 79 75 65